Other Public Products
Issued by NWS Grand Forks, ND

Home | Current Version | Previous Version | Graphics & Text | Print | Product List | Glossary On
Versions: 1 2 3 4 5 6 7 8 9 10 11 12 13 14 15 16 17 18 19 20 21 22 23 24 25 26 27 28 29 30 31 32 33 34 35 36 37 38 39 40 41 42 43 44 45 46 47 48 49 50
000
FPUS83 KFGF 220731
OPUFGF
PRAIRIE TO PINES WEATHER ROUNDUP
NATIONAL WEATHER SERVICE EASTERN NORTH DAKOTA/GRAND FORKS ND
200 AM CDT SUN APR 22 2018

 **SATELLITE DATA USED TO AUGMENT SKY COVER AT AUTOMATED STATIONS**
 *****  WEATHER ACROSS EASTERN NORTH DAKOTA  *****

CITY           SKY/WX    TMP DP  RH WIND       PRES   REMARKS
GRAND FORKS    FAIR      41  40  96 S10       30.23R
GRND FORKS AFB FAIR      39  38  94 S10       30.22S
GRND FORKS NWS   N/A     42  39  87 S6        30.20F
BUXTON           N/A     42  40  96 S6          N/A
DEVILS LAKE    FAIR      43  33  68 S16       30.19S
FARGO          FAIR      43  36  76 S12       30.27S
WAHPETON ARPT  FAIR      37  32  81 SE7       30.29F
$$

 *****  WEATHER ACROSS CENTRAL AND WESTERN NORTH DAKOTA  *****

CITY           SKY/WX    TMP DP  RH WIND       PRES   REMARKS
JAMESTOWN      FAIR      37  32  82 S7        30.22R
BISMARCK       FAIR      44  35  70 S12       30.17F
MINOT          FAIR      46  37  71 S25G38    30.05S
MINOT AFB      FAIR      45  37  73 S23G29    30.04R
GARRISON         N/A     40  35  83 S12       30.10S
WILLISTON      FAIR      48  39  71 SW3       30.05R
DICKINSON      FAIR      40  36  86 S16G26    30.05R
HETTINGER      FAIR      39  35  86 SE12      30.12S
$$

 *****  OTHER OBSERVATIONS NORTHEAST NORTH DAKOTA  *****

CITY           SKY/WX    TMP DP  RH WIND       PRES   REMARKS
WALHALLA       FAIR      48  36  61 SW16      30.16S
LANGDON        NOT AVBL
CAVALIER         N/A     43  39  87 S10       30.17F
GRAFTON        NOT AVBL
CANDO          FAIR      39  39 100 S12       30.17R
FORT TOTTEN      N/A     40  33  76 S9        29.95S
ROLLA          FAIR      41  37  87 S18       30.11S
RUGBY          NOT AVBL
 ***** THE ABOVE OBSERVATIONS ARE NON NWS ARE NOT QUALITY
        CONTROLLED AND MAY MIS-REPORT RAIN FOR SNOW...
$$

 *****  OTHER OBSERVATIONS SOUTHEAST NORTH DAKOTA *****

CITY           SKY/WX    TMP DP  RH WIND       PRES   REMARKS
COOPERSTOWN    FAIR      39  36  87 S9        30.23S
VALLEY CITY    NOT AVBL
OAKES            N/A     34  34 100 S10       30.26S
GWINNER          N/A     36  34  93 SW6       30.27S
SHEYENNE NWR     N/A     37  37 100 S6        29.95S
BUFFALO          N/A     41  34  75 E9          N/A
WYNDMERE       NOT AVBL
 ***** THE ABOVE OBSERVATIONS ARE NON NWS ARE NOT QUALITY
       CONTROLLED AND MAY MIS-REPORT RAIN FOR SNOW...
$$

  *****  WEATHER ACROSS NORTHERN MINNESOTA  *****

CITY           SKY/WX    TMP DP  RH WIND       PRES   REMARKS
FLAG ISLAND    FAIR      36  28  75 S5        30.23S
WARROAD        FAIR      39  36  87 S6        30.25R
ROSEAU         FAIR      41  36  81 S7        30.24S
HALLOCK        FAIR      45  41  87 S14       30.20F
THF RVR FALLS  FAIR      44  37  76 S12       30.26S
HALSTAD        NOT AVBL
FOSSTON        FAIR      34  30  86 S8        30.28S
BAUDETTE       FAIR      39  28  64 CALM      30.25S
WASKISH        FAIR      43  28  56 S6        30.27S
CROOKSTON      FAIR      45  37  76 S14       30.26S
$$
  *****  WEATHER ACROSS CENTRAL AND WEST MINNESOTA  *****

CITY           SKY/WX    TMP DP  RH WIND       PRES   REMARKS
BEMIDJI        FAIR      35  28  75 CALM      30.27F
PARK RAPIDS    FAIR      38  30  73 S3        30.29R
WADENA         FAIR      36  30  80 S3        30.30F
DETROIT LAKES  FAIR      37  34  87 S5        30.31R
MOORHEAD       FAIR      39  36  87 S8        30.29S
FERGUS FALLS   FAIR      37  34  87 S7        30.29F
ELBOW LAKE     FAIR      36  32  85 E6        30.31F
MORRIS MN      FAIR      36  34  93 S6        30.29F
STAPLES        FAIR      36  28  75 S5        30.31S
WHEATON        FAIR      39  34  81 S9        30.32F
$$
  *****  WEATHER ELSEWHERE ACROSS MINNESOTA  *****

CITY           SKY/WX    TMP DP  RH WIND       PRES   REMARKS
DULUTH         FAIR      36  18  48 CALM      30.32F
INTRNTL FALLS  FAIR      34  25  69 CALM      30.27F
ELY            FAIR      28  19  69 SE3       30.32F
CLOQUET        FAIR      30  18  59 CALM      30.32S
BRAINERD       FAIR      32  24  72 CALM      30.31S
HIBBING        FAIR      26  22  84 CALM      30.31F
ALEXANDRIA     FAIR      41  35  79 S6        30.32S
SAINT CLOUD    FAIR      33  29  85 CALM      30.33S
MINNEAPOLIS    FAIR      44  33  65 CALM      30.35S
$$

  *****  WEATHER ACROSS SOUTH DAKOTA  *****

CITY           SKY/WX    TMP DP  RH WIND       PRES   REMARKS
SIOUX FALLS    CLOUDY    39  33  79 E5        30.29S
BROOKINGS      FAIR      35  29  78 SE9       30.29S
WATERTOWN      FAIR      37  28  70 S6        30.28F
HURON          NOT AVBL
SISSETON         N/A     36  31  82 S3        30.28F
ABERDEEN       FAIR      33  30  88 SE9       30.27F
MITCHELL       CLOUDY    39  36  89 CALM      30.28S
PIERRE         FAIR      34  32  92 SE8       30.22S
MOBRIDGE       FAIR      36  32  85 SE8       30.19S
RAPID CITY     FAIR      37  34  89 SE14      30.12F
$$

  *****  SOME WEATHER IN NEARBY STATES *****

CITY           SKY/WX    TMP DP  RH WIND       PRES   REMARKS
GLASGOW MT     FAIR      47  25  42 NW7       30.06R
GREAT FALLS MT FAIR      41  24  51 CALM      30.13R
CHEYENNE WY    CLOUDY    34  34 100 S10       30.14S FOG
SCOTTSBLUFF NE FAIR      34  34 100 SE10      30.17F
OMAHA NE       CLOUDY    51  29  42 E15       30.22F
DES MOINES IA  MOCLDY    50  32  50 E12       30.27F
DAVENPORT IA   FAIR      46  29  51 E8        30.32S
CHICAGO IL     CLOUDY    44  21  40 NE7       30.35F
EAU CLAIRE WI  FAIR      34  29  82 CALM      30.34F
LA CROSSE WI   FAIR      41  32  70 E3        30.35S
$$

  *****  SOME NATIONAL WEATHER *****

CITY           SKY/WX    TMP DP  RH WIND       PRES   REMARKS
LA GUARDIA NY  MOCLDY    49  22  34 NW6       30.37R
RALEIGH NC     FAIR      51  40  65 S5        30.36F
ATLANTA GA     MOCLDY    61  51  70 E8        30.23F
NEW ORLEANS LA CLOUDY    71  68  90 SE10      30.01F
OKLAHOMA CITY  CLOUDY    46  44  93 N21G26    30.09F
ALBUQUERQUE NM FAIR      52  28  39 E12       30.16R
SALT LAKE CITY FAIR      53  31  42 SE8       30.14S
LOS ANGELES CA MOCLDY    60  53  77 N3        29.98S
BOISE ID       FAIR      49  33  54 W5        30.12R
SEATTLE WA     FAIR      48  36  63 NE15      30.40F
$$

*** WEATHER ACROSS MANITOBA...SASKATCHEWAN AND ONTARIO ***
                ***ONTARIO***

CITY           SKY/WX    TMP DP  RH WIND       PRES   REMARKS
GERALDTON      CLEAR     32  18  55 SW2       30.32S
THUNDER BAY    CLEAR     27  23  86 W2        30.36R
SIOUX LOOKOUT  PTCLDY    32  23  69 SE5       30.25F
TORONTO        CLEAR     41  23  48 N7        30.39F
BIG TROUT LK   MOCLDY    39  27  60 S6        30.17S
PICKLE LAKE    NOT AVBL
DRYDEN         CLEAR     41  23  48 S9        30.24F
KENORA         NOT AVBL
$$
                *** MANITOBA***

CITY           SKY/WX    TMP DP  RH WIND       PRES   REMARKS
BRANDON        MOCLDY    46  37  71 S18       30.02F
DAUPHIN        CLOUDY    54  37  54 SW31G48   29.88R
ISLAND LAKE    MOCLDY    46  30  53 SE8       30.07
PILOT MOUND      N/A     43  34  70 S17         N/A
THE PAS        MOCLDY    43  36  75 SE15      29.69F
THOMPSON       MOCLDY    48  30  49 SE3       29.90F
WINNIPEG       MOCLDY    48  41  76 S18G24    30.14S
LYNN LAKE      CLOUDY    43  32  65 SE10      29.77F
CHURCHILL      CLOUDY    27  25  93 NE16      30.20S WCI  14
GILLAM         MOCLDY    43  30  61 E9        30.05S
$$
                ***SASKATCHEWAN***

CITY           SKY/WX    TMP DP  RH WIND       PRES   REMARKS
ESTEVAN        MOCLDY    46  37  71 SW8       30.00R
KINDERSLEY     PTCLDY    41  36  81 W24       29.90R
LLOYDMINSTER   MOCLDY    39  37  93 W18G28    29.77R
PRINCE ALBERT  PTCLDY    39  37  93 SW14      29.57R
REGINA         PTCLDY    45  36  70 W17G26    29.93R
YORKTON        CLOUDY    46  37  71 S12       29.83F


USA.gov is the U.S. government's official web portal to all federal, state and local government web resources and services.